Regional Weather Roundup
Issued by NWS Kansas City/Pleasant Hill, MO

Home | Current Version | Previous Version | Text Only | Print | Product List | Glossary On
Versions: 1 2 3 4 5 6 7 8 9 10 11 12 13 14 15 16 17 18 19 20 21 22 23 24 25 26 27 28 29 30 31 32 33 34 35 36 37 38 39 40 41 42 43 44 45 46 47 48 49 50
000
ASUS43 KEAX 301411
RWREAX

WEATHER ROUNDUP FOR EASTERN KANSAS AND NORTHWEST MISSOURI
NATIONAL WEATHER SERVICE KANSAS CITY/PLEASANT HILL MO
900 AM CDT TUE JUN 30 2015

KSZ040-057-103>105-MOZ028-029-037-043-301500-
...KANSAS CITY METROPOLITAN AREA...

CITY           SKY/WX    TMP DP  RH WIND       PRES   REMARKS
K.C. INTL      CLOUDY    73  65  75 W6        29.96R
K.C. DOWNTOWN  MOSUNNY   76  66  71 SW3       29.94S
LEES SUMMIT    MOSUNNY   74  65  73 W7        29.96R
OLATHE - IXD   MOSUNNY   73  64  73 W6        29.97R
OLATHE - OJC   MOSUNNY   75  62  64 NW7       29.96R
LAWRENCE       SUNNY     72  65  78 W7        29.96R

$$

MOZ001>008-011>017-020>025-030>033-038>040-044>046-053-054-301500-
...NORTHERN AND CENTRAL MISSOURI...

CITY           SKY/WX    TMP DP  RH WIND       PRES   REMARKS
ST. JOSEPH     SUNNY     72  67  84 CALM      29.95S
MOSBY          SUNNY     70  68  94 CALM      29.94S
HARRISONVILLE  MOSUNNY   75  68  78 NW3       29.99R
WARRENSBURG    PTSUNNY   72  64  78 W6        29.94S
WHITEMAN AFB   SUNNY     75  66  73 W8        29.93S
CLINTON        MOSUNNY   73  66  78 W6        29.96S
SEDALIA        MOSUNNY   75  66  73 W6        29.95R
WARSAW         FAIR      75  66  73 SW5       29.97R
CHILLICOTHE      N/A     74  66  76 W3        29.93R
KIRKSVILLE     SUNNY     70  64  81 W7        29.92R

$$

MOZ041-047>049-056>058-063>065-088>090-097-301500-
...EASTERN AND SOUTHERN MISSOURI...

CITY           SKY/WX    TMP DP  RH WIND       PRES   REMARKS
ST. LOUIS INTL MOSUNNY   75  66  73 W5        29.91R
SPIRIT OF STL  SUNNY     73  69  87 CALM      29.90R
COLUMBIA       MOSUNNY   73  68  84 SW7       29.93S
JEFFERSON CITY SUNNY     73  66  78 W3        29.93R
MEXICO         SUNNY    N/A N/A N/A W5        29.92R
ROLLA          PTSUNNY   70  67  90 SW9       29.95R
OSAGE BEACH    SUNNY     73  64  73 W6        29.96R
SPRINGFIELD    SUNNY     75  63  66 W8        30.00R
BRANSON        CLOUDY    72  64  78 CALM      30.02R
NEVADA         MOSUNNY   72  64  78 SW6       29.99R
JOPLIN         MOSUNNY   73  67  81 SW7       30.00R
WEST PLAINS    SUNNY     71  65  81 W6        30.00R
MALDEN         SUNNY     79  68  69 W9        29.94S

$$

IAZ060-094-KSZ022-034>040-054-083-096-NEZ052-066-093-301500-
...KANSAS...SOUTHEAST NEBRASKA AND IOWA...

CITY           SKY/WX    TMP DP  RH WIND       PRES   REMARKS
TOPEKA         SUNNY     73  63  70 W5        29.96R
MANHATTAN      SUNNY     75  64  68 CALM      29.96F
EMPORIA        MOSUNNY   75  65  70 W3        29.98R
CHANUTE        MOSUNNY   72  66  81 S5        29.99R
WICHITA        PTSUNNY   79  63  57 SW6       30.00R
OMAHA          CLOUDY    73  64  73 CALM      29.95S HAZE
LINCOLN        PTSUNNY   75  65  70 N5        29.98R HAZE
FALLS CITY     MOSUNNY   73  66  78 NW5       29.95R
LAMONI         MOSUNNY   71  64  78 NW7       29.93S
DES MOINES     CLOUDY    70  63  78 N8        29.92R HAZE

$$




USA.gov is the U.S. government's official web portal to all federal, state and local government web resources and services.